This is the latest recevied weather packets stored in our database for station/object KD4IZ-13. If no packets are shown the sender has not sent any weather packets the latest 10 day(s).
| Time | Temp. | Humidity | Pressure | Rain* | Wind** | Luminosity | Snow |
|---|---|---|---|---|---|---|---|
| 1777419914 | 12.78° C | 81% | 1019.2 hPa | 0 mm | - | 3 W/m² | - |
| 1777419611 | 12.78° C | 80% | 1019.2 hPa | 0 mm | - | 5 W/m² | - |
| 1777419310 | 12.78° C | 80% | 1019.6 hPa | 0 mm | - | 6 W/m² | - |
| 1777419008 | 12.78° C | 79% | 1019.2 hPa | 0 mm | - | 8 W/m² | - |
| 1777418702 | 12.78° C | 79% | 1019.1 hPa | 0 mm | - | 10 W/m² | - |
| 1777418399 | 12.78° C | 80% | 1019.3 hPa | 0 mm | - | 14 W/m² | - |
| 1777418094 | 12.78° C | 79% | 1019.2 hPa | 0 mm | - | 16 W/m² | - |
| 1777417791 | 12.78° C | 80% | 1018.9 hPa | 0 mm | - | 23 W/m² | - |
| 1777417481 | 12.78° C | 80% | 1019 hPa | 0 mm | - | 18 W/m² | - |
| 1777417178 | 12.78° C | 80% | 1019 hPa | 0 mm | - | 10 W/m² | - |
| 1777416873 | 12.78° C | 80% | 1019.2 hPa | 0 mm | - | 18 W/m² | - |
| 1777416569 | 12.78° C | 81% | 1019.2 hPa | 0 mm | - | 21 W/m² | - |
| 1777416266 | 12.78° C | 81% | 1019.2 hPa | 0 mm | - | 38 W/m² | - |
| 1777415965 | 12.78° C | 81% | 1018.9 hPa | 0 mm | - | 65 W/m² | - |
| 1777415660 | 12.78° C | 82% | 1019.2 hPa | 0 mm | - | 52 W/m² | - |
| 1777415356 | 12.78° C | 82% | 1019.1 hPa | 0 mm | - | 52 W/m² | - |
| 1777415050 | 12.78° C | 83% | 1019.3 hPa | 0 mm | - | 44 W/m² | - |
| 1777414749 | 12.78° C | 82% | 1019.1 hPa | 0 mm | - | 40 W/m² | - |
| 1777414447 | 12.78° C | 81% | 1019.4 hPa | 0 mm | - | 57 W/m² | - |
| 1777414145 | 12.78° C | 81% | 1019.3 hPa | 0 mm | - | 43 W/m² | - |
| 1777413841 | 12.78° C | 82% | 1019.5 hPa | 0 mm | - | 39 W/m² | - |
| 1777413536 | 13.33° C | 81% | 1019.4 hPa | 0 mm | - | 39 W/m² | - |
| 1777413233 | 13.33° C | 80% | 1019.3 hPa | 0 mm | - | 40 W/m² | - |
| 1777412929 | 13.33° C | 80% | 1019.5 hPa | 0 mm | - | 43 W/m² | - |
| 1777412628 | 13.33° C | 80% | 1019.5 hPa | 0 mm | - | 37 W/m² | - |
* Rain latest hour (hover to see other rain measurements)
** Current wind speed in m/s (hover to see current wind gust speed)